Location: Lake Almanor
(40.2485°N, 121.1442°W)
Time: 00:14:15
(UTC-08:00)

STARLINK-1109 - Pass Details

Date: 04 February 2020
Orbit: 348 x 351 km, 53.0° (Epoch: 23 February)

Event Time Altitude Azimuth Distance (km) Brightness Sun altitude
Rises 18:23:11 0° 292° (WNW) 2,156 7.7 -11.2°
Maximum altitude 18:27:29 14° 231° (SW) 1,094 6.1 -12.0°
Drops below altitude 10° 18:29:08 10° 196° (SSW) 1,303 5.9 -12.3°
Sets 18:31:45 0° 170° (S) 2,139 6.7 -12.8°
